Wind_Gust
20 17 12 19 23 24 17 16 16 17 15 15 15 15 16 14 15 12 12 11 9 9 8 7 7 8 10 9 9 11 10 10 11 12 11 12 14 17 18 17 10 10
19 14 14 19 21 18 14 14 15 15 14 13 14 14 14 15 14 13 13 13 12 10 9 8 8 8 8 10 9 8 10 10 10 10 11 11 15 17 15 17 14 10
17 16 22 20 17 13 14 14 15 14 14 12 14 14 15 15 14 13 13 12 12 11 8 8 8 7 8 9 9 8 9 10 10 9 10 11 10 11 12 11 12 13
21 20 19 16 13 14 14 15 15 15 14 14 14 13 15 15 14 15 14 11 12 11 10 10 9 9 10 10 10 10 9 8 8 9 10 11 10 11 11 10 13 14
22 22 20 18 16 16 15 16 16 16 15 14 14 14 14 14 15 16 14 13 12 12 11 12 10 9 9 11 11 11 11 10 9 9 8 8 9 11 11 11 11 13
22 22 21 19 18 17 17 18 16 17 15 14 14 14 14 14 15 16 15 14 14 13 13 13 12 11 10 12 11 11 11 12 10 9 10 11 11 12 13 12 12 14
23 21 20 19 18 17 16 16 14 15 14 13 14 13 14 14 14 15 15 14 14 14 14 13 13 11 11 12 11 11 11 12 11 11 11 12 12 13 14 14 14 15
24 20 20 19 18 17 16 17 16 16 14 14 13 13 14 15 14 14 14 15 14 14 13 15 14 14 12 13 14 12 11 10 11 13 11 12 12 14 14 15 14 14
22 22 22 19 18 17 16 18 17 16 16 15 14 14 14 14 14 15 16 15 15 14 14 15 15 15 12 12 13 14 13 11 10 13 13 12 13 14 16 15 15 15
22 22 22 20 19 18 16 16 16 15 15 14 14 14 16 13 14 16 16 14 14 14 14 14 15 14 14 14 16 14 13 13 12 12 14 14 14 15 15 14 14 16
22 23 22 21 20 19 18 18 17 17 14 15 14 15 15 14 15 15 15 15 14 15 16 15 15 16 15 14 13 12 13 13 13 12 12 13 13 14 10 14 15 16
23 22 23 21 21 19 19 18 18 16 16 14 16 16 14 14 15 15 15 16 15 15 15 15 16 15 15 15 15 13 13 12 12 12 13 14 14 15 17 14 14 15
21 22 22 22 20 20 19 20 18 16 17 16 16 15 15 15 15 15 13 14 15 13 14 15 15 16 15 14 14 14 14 14 13 12 12 12 11 13 14 15 15 15
22 21 19 20 19 19 19 19 18 17 15 15 16 16 15 15 15 14 13 13 13 13 14 13 14 14 14 14 14 14 13 13 14 12 13 11 10 12 11 11 12 12
11 15 16 17 17 19 18 20 18 17 15 14 14 15 13 14 14 13 12 13 14 12 14 13 13 13 13 10 11 14 12 13 13 14 12 12 12 12 11 10 11 10
19 16 15 18 14 16 19 18 18 17 16 15 15 14 13 13 13 14 12 13 15 14 13 11 11 15 15 15 13 13 12 14 11 12 12 12 11 11 10 9 9 10
19 17 16 14 9 16 16 18 17 17 17 16 15 14 13 12 11 13 12 11 13 14 13 12 16 14 15 14 16 15 16 11 12 11 11 12 11 11 11 10 10 10
17 17 16 16 18 19 17 15 12 16 17 16 16 15 13 13 11 11 10 9 10 12 11 17 15 15 14 14 14 16 13 16 13 11 11 12 12 12 12 12 12 10
16 18 16 15 16 16 16 16 17 16 13 13 14 13 11 11 12 10 11 10 10 16 18 17 14 14 14 13 13 14 16 14 17 12 12 12 11 12 12 11 11 13
19 18 17 16 15 14 12 13 12 13 12 12 13 12 12 11 10 9 9 9 12 15 15 15 14 13 13 13 11 11 11 11 16 16 11 12 11 13 11 11 12 11
21 20 18 17 15 13 12 9 8 9 9 11 11 11 9 10 10 8 8 8 13 15 14 12 14 14 14 14 13 11 11 7 13 12 13 13 13 11 10 10 11 13
14 18 18 17 17 15 14 13 7 7 9 9 10 10 9 9 9 9 8 8 13 13 13 12 13 15 14 14 13 13 12 11 12 12 13 14 15 12 12 14 14 14
18 18 16 16 15 16 15 12 10 9 8 9 11 13 13 11 11 13 11 12 12 12 13 13 14 14 14 14 13 14 10 12 13 14 13 12 12 13 11 16 19 23
19 19 20 19 18 17 15 11 10 8 7 7 10 12 14 13 13 13 14 15 12 14 13 14 13 13 12 13 13 14 11 14 13 14 12 11 10 12 13 13 24 17
19 19 18 17 17 15 12 14 13 11 13 15 15 15 11 14 14 15 15 13 14 14 9 15 15 12 12 12 13 13 15 14 13 12 13 11 11 12 8 14 19 13
20 20 19 19 20 16 16 16 14 14 14 14 14 15 12 12 12 14 14 14 14 13 12 14 16 16 14 11 12 13 13 15 11 12 11 11 12 13 11 11 15 15
Wind_Speed
11 9 6 7 3 10 9 7 7 7 6 6 6 6 6 5 7 6 5 4 3 3 2 2 2 3 3 3 3 3 1 4 3 4 4 6 6 6 5 5 3 3
11 7 6 7 9 11 6 6 7 6 6 6 5 6 6 7 7 6 6 6 5 3 2 2 3 3 3 4 3 2 4 3 4 2 4 5 7 9 7 9 6 3
10 9 7 9 9 8 7 6 6 6 6 5 6 5 6 7 6 6 6 6 5 4 3 2 2 2 2 3 3 2 3 4 3 3 4 4 4 4 4 6 5 5
13 11 10 10 8 7 7 7 7 6 6 5 6 5 6 6 6 6 6 5 5 4 3 3 3 3 3 4 3 3 3 3 3 4 4 4 4 4 5 5 6 5
12 12 11 10 9 9 8 8 8 7 7 6 7 6 6 6 6 7 6 5 5 4 4 4 3 3 3 4 4 4 4 4 4 3 3 3 3 4 5 4 5 6
10 12 12 11 10 10 8 9 9 9 7 7 7 7 6 7 7 7 7 6 5 5 5 5 4 4 3 5 4 4 5 4 3 3 3 3 4 4 4 5 6 8
10 13 12 10 11 10 9 9 7 8 7 6 7 6 7 7 7 7 7 6 6 6 6 5 5 4 4 5 4 4 4 4 4 3 3 5 4 5 5 6 7 7
14 12 11 11 11 10 9 9 8 9 7 7 7 6 7 7 7 6 6 6 6 6 6 6 6 5 5 5 5 5 4 4 4 5 3 4 5 6 7 6 6 7
12 12 12 12 11 9 10 10 9 8 8 7 6 6 6 6 6 7 7 6 6 5 6 6 7 6 4 5 5 5 5 4 4 6 4 5 5 6 7 6 7 7
11 12 13 12 11 9 10 10 9 7 8 7 6 6 6 5 6 7 7 7 6 6 6 6 7 6 6 6 6 6 5 5 5 6 6 5 5 5 6 6 6 7
12 14 12 13 12 10 11 10 10 9 6 6 6 6 7 5 6 7 7 7 6 6 7 6 6 7 7 6 6 5 6 5 5 5 5 6 6 6 6 6 7 7
12 12 13 12 12 11 11 10 10 9 9 5 7 7 6 6 7 6 6 7 7 6 7 7 7 7 6 6 6 5 5 5 4 5 5 6 6 7 7 5 6 7
8 12 11 11 11 11 10 10 9 9 9 8 7 7 7 6 6 6 5 6 6 6 6 6 7 6 7 6 6 5 6 5 5 5 5 4 4 6 7 7 7 6
10 9 5 10 9 10 10 9 9 8 8 7 7 7 7 7 6 6 6 6 6 5 5 5 6 6 6 6 6 6 6 5 6 5 5 5 4 4 4 4 5 6
4 6 7 2 9 8 8 9 9 8 7 7 7 7 6 6 6 6 5 6 6 5 6 5 5 5 3 2 3 7 5 5 5 5 6 5 5 5 4 4 4 3
8 5 6 6 1 8 9 8 8 8 8 7 7 6 6 6 6 6 4 6 6 5 6 5 4 6 7 11 10 6 1 5 4 4 5 5 5 5 4 4 4 4
9 8 7 7 3 8 8 9 7 7 8 8 7 6 6 4 5 6 5 4 6 6 5 4 7 5 11 11 13 11 8 3 5 4 4 4 4 4 4 4 3 4
9 9 8 6 10 10 8 6 6 8 8 8 8 8 6 5 4 4 4 3 4 6 5 8 6 11 12 12 11 13 10 7 6 4 3 4 4 4 5 4 5 3
9 9 7 6 8 8 8 8 8 7 7 7 8 7 6 6 6 5 4 4 4 8 9 8 6 11 12 12 11 11 13 9 6 5 5 4 4 5 5 5 4 5
8 8 8 7 8 8 6 7 7 7 6 6 6 6 6 6 6 5 5 4 5 7 7 7 7 10 11 11 10 9 9 8 5 8 5 5 6 6 5 5 6 4
9 9 10 9 8 7 7 5 4 4 5 6 6 6 5 4 5 4 4 4 7 6 6 6 5 10 11 12 11 10 9 5 4 5 5 4 6 5 4 4 4 5
7 9 10 9 9 8 7 6 4 4 5 6 5 6 5 4 3 4 4 5 7 7 5 5 6 12 11 11 10 11 10 3 3 5 5 6 7 7 5 6 6 7
8 7 7 8 8 9 9 6 4 4 4 5 6 5 5 4 5 5 5 6 7 6 7 5 5 9 10 10 10 12 8 3 4 5 5 5 6 6 2 5 9 12
9 10 11 10 9 9 8 6 6 5 4 2 3 5 6 6 5 5 7 8 7 7 7 6 5 7 10 9 10 11 8 5 4 4 6 5 4 5 3 5 6 10
9 10 9 9 9 8 6 7 6 5 6 7 7 7 5 6 6 6 7 7 5 6 8 7 6 6 10 9 9 10 9 5 5 4 4 5 4 4 3 5 6 8
10 10 10 10 11 8 7 8 6 6 7 7 7 7 6 5 5 7 7 6 5 5 5 6 7 6 8 9 10 11 10 5 4 5 4 4 4 5 4 4 6 6
Wind_Direction
162 166 150 124 144 228 215 188 176 171 173 164 160 159 161 150 154 161 139 143 140 130 143 143 142 155 163 174 164 209 129 182 169 183 183 165 164 181 191 188 185 210
161 149 143 141 197 212 191 182 175 169 171 163 153 155 153 146 157 151 149 148 153 143 148 156 164 164 165 155 157 205 161 182 177 180 174 170 176 182 175 169 187 171
148 161 161 183 203 184 177 169 161 173 161 166 145 157 152 152 157 151 158 164 151 132 153 136 118 120 140 137 147 177 146 177 163 179 173 185 166 167 156 149 143 161
161 164 174 186 172 170 162 166 158 161 159 158 153 153 151 159 158 157 160 164 136 132 143 140 148 159 156 123 150 153 139 150 165 172 182 159 172 159 148 164 155 152
161 163 164 159 161 165 158 160 163 155 158 153 152 147 161 155 163 159 163 159 144 141 151 149 149 113 136 152 146 138 150 148 154 167 163 170 155 156 154 165 151 138
162 164 158 154 155 159 158 159 174 151 157 151 155 156 158 159 165 165 161 162 153 146 160 160 155 158 150 122 143 144 150 149 137 160 154 168 167 160 160 165 160 158
180 161 152 154 152 155 158 158 158 149 159 156 152 160 156 164 168 163 164 170 152 159 162 165 153 163 142 141 151 151 127 125 142 145 170 161 167 158 173 160 152 131
165 152 150 150 149 152 155 155 157 160 160 156 160 157 166 166 170 164 166 174 162 158 162 160 166 159 162 158 147 130 138 148 149 144 154 145 164 166 162 165 136 151
161 154 150 156 149 149 157 157 158 164 164 163 169 161 171 174 164 170 170 171 161 157 164 162 171 159 167 157 134 153 152 131 120 118 142 149 160 158 155 156 154 157
158 154 155 151 149 151 154 158 153 157 172 163 167 167 166 182 161 175 168 168 157 162 157 166 164 156 165 161 164 160 149 141 130 133 143 147 147 158 144 147 147 147
158 156 155 154 150 149 153 157 155 166 157 173 162 170 161 172 162 177 167 165 162 165 158 162 157 166 167 169 154 162 164 151 161 145 136 141 137 128 131 141 150 148
161 159 155 155 151 151 154 154 157 155 163 162 166 164 155 166 171 169 174 156 173 170 159 161 167 166 160 155 156 159 151 165 143 142 137 127 141 147 134 134 141 148
159 157 155 154 151 151 152 154 153 152 158 156 166 154 155 168 167 161 171 164 173 164 159 164 156 163 159 156 154 161 160 153 156 154 141 140 148 136 144 153 154 148
22 353 153 146 148 149 154 149 146 150 154 149 155 149 161 163 163 160 166 180 145 159 151 149 153 164 150 158 163 154 158 159 156 161 146 147 138 135 135 148 138 151
90 89 341 121 141 146 155 150 148 146 142 141 143 148 161 157 156 153 168 149 149 150 139 143 164 148 100 30 146 151 159 165 163 166 152 152 155 143 149 148 153 140
120 94 89 17 183 151 151 147 147 139 135 137 141 141 143 143 149 152 160 143 149 141 141 157 120 61 23 29 24 13 255 171 174 155 171 159 168 140 157 166 155 135
94 72 44 40 52 151 148 149 141 140 139 136 130 125 122 125 134 143 151 153 145 138 141 120 60 24 11 32 11 19 3 351 177 171 183 174 174 177 163 187 176 167
87 79 68 56 61 52 57 73 137 144 132 125 125 128 124 123 121 103 74 85 132 141 109 69 59 9 5 23 19 6 20 355 319 205 202 192 203 201 200 194 204 195
95 95 91 78 75 67 53 54 56 71 93 108 101 84 91 92 76 78 77 63 65 69 61 55 50 11 6 12 22 14 4 352 322 302 208 223 221 216 229 220 205 202
101 98 96 89 88 87 65 43 52 58 67 72 74 68 70 74 66 54 44 37 51 69 65 51 44 8 4 11 18 18 12 351 303 313 273 245 230 232 235 248 238 224
129 122 118 113 110 108 101 84 63 66 71 76 75 74 69 73 84 78 55 48 71 72 73 58 39 10 14 11 5 5 4 328 293 294 291 292 286 267 253 255 250 239
115 126 125 126 124 107 97 97 87 84 80 80 84 80 74 73 69 85 91 97 100 95 85 70 32 19 17 13 3 4 342 289 270 260 252 253 254 260 236 238 238 234
57 74 104 109 107 107 100 95 98 91 111 118 116 114 118 100 73 57 61 87 99 103 96 72 49 16 13 16 8 4 350 325 275 255 254 251 256 261 279 1 355 353
67 68 75 79 86 96 83 62 53 46 47 30 113 138 131 124 113 80 58 51 47 73 72 77 62 26 16 16 15 6 350 319 306 290 304 296 265 256 278 83 36 9
82 80 79 80 82 82 80 74 56 57 69 59 42 39 67 110 102 94 82 73 72 82 90 78 67 46 26 17 24 19 5 337 315 281 255 257 280 278 267 109 124 57
72 78 79 74 71 69 77 88 95 88 84 85 76 73 55 53 84 99 106 105 93 75 76 88 81 55 30 23 34 29 17 335 334 5 347 351 320 317 341 343 105 111